Change the Weather History Date:

Monday, August 12, 2013

  Actual Average (KAXO) Record (KAXO)
Temperature  
Mean Temperature 84 °F -  
Max Temperature 92 °F 84 °F 91 °F (1998)
Min Temperature 76 °F 81 °F 80 °F (2002)
Cooling Degree Days 19    
Growing Degree Days 34 (Base 50)    
Moisture  
Dew Point 78 °F    
Average Humidity 84    
Maximum Humidity 99    
Minimum Humidity 64    
Precipitation  
Precipitation 0.00 in - - ()
Sea Level Pressure  
Sea Level Pressure 30.07 in    
Wind  
Wind Speed 2 mph (SE)    
Max Wind Speed 12 mph    
Max Gust Speed -    
Visibility 10 miles    
Events Rain , Thunderstorm    
Averages and records for this station are not official NWS values.
T = Trace of Precipitation, MM = Missing Value Source: NWS Daily Summary

Daily Weather History Graph

Daily Weather History Graph

Search for Another Location

Airport or City:

Trip Planner

Search our weather history database for the weather conditions in past years. The results will help you decide how hot, cold, wet, or windy it might be!

Date:

Astronomy

Aug. 12, 2013 Rise Set
Actual Time 6:27 AM CDT 7:43 PM CDT
Civil Twilight 6:02 AM CDT 8:09 PM CDT
Nautical Twilight 5:32 AM CDT 8:38 PM CDT
Astronomical Twilight 5:01 AM CDT 9:09 PM CDT
Moon 11:46 AM CDT (8/12) 11:10 PM CDT (8/12)
Length of Visible Light 14h 06m
Length of Day
13h 16m
Waxing Crescent, 31% of the Moon is Illuminated
Aug 12
Waxing Crescent
Aug 14
First Quarter
Aug 20
Full
Aug 28
Last Quarter
Sep 5
New

Hourly Weather History & Observations

Time (CDT) Temp. Heat Index Dew Point Humidity Pressure Visibility Wind Dir Wind Speed Gust Speed Precip Events Conditions
2:15 AM 77.4 °F - 76.6 °F 98% 30.06 in 10.0 mi Calm Calm - N/A   Clear
2:35 AM 77.0 °F - 76.5 °F 98% 30.07 in 10.0 mi Calm Calm - N/A   Clear
2:55 AM 77.0 °F - 76.6 °F 99% 30.07 in 10.0 mi Calm Calm - N/A   Clear
3:15 AM 77.0 °F - 76.6 °F 99% 30.07 in 10.0 mi Calm Calm - N/A   Clear
3:35 AM 76.5 °F - 76.1 °F 99% 30.07 in 10.0 mi Calm Calm - N/A   Clear
3:55 AM 76.6 °F - 76.3 °F 99% 30.07 in 10.0 mi Calm Calm - N/A   Clear
4:15 AM 76.5 °F - 76.1 °F 99% 30.07 in 10.0 mi Calm Calm - N/A   Clear
4:35 AM 77.2 °F - 77.0 °F 99% 30.07 in 10.0 mi Calm Calm - N/A   Clear
4:55 AM 76.5 °F - 76.1 °F 99% 30.07 in 10.0 mi Calm Calm - N/A   Clear
5:15 AM 76.5 °F - 76.1 °F 99% 30.06 in 10.0 mi Calm Calm - N/A   Clear
5:35 AM 76.3 °F - 76.1 °F 99% 30.06 in 10.0 mi Calm Calm - N/A   Clear
5:55 AM 76.5 °F - 76.1 °F 99% 30.06 in 10.0 mi Calm Calm - N/A   Clear
6:15 AM 76.1 °F - 75.7 °F 99% 30.07 in 10.0 mi Calm Calm - N/A   Scattered Clouds
6:35 AM 76.6 °F - 76.1 °F 98% 30.07 in 10.0 mi Calm Calm - N/A   Scattered Clouds
6:55 AM 76.1 °F - 75.7 °F 99% 30.07 in 10.0 mi Calm Calm - N/A   Clear
7:15 AM 77.2 °F - 76.8 °F 99% 30.08 in 10.0 mi Calm Calm - N/A   Clear
7:35 AM 79.3 °F - 79.2 °F 99% 30.08 in 10.0 mi Calm Calm - N/A   Clear
7:55 AM 83.7 °F 98.1 °F 81.5 °F 93% 30.09 in 10.0 mi Calm Calm - N/A Thunderstorm Clear
8:15 AM 86.5 °F 103.2 °F 80.8 °F 83% 30.10 in 10.0 mi Calm Calm - N/A   Clear
8:35 AM 87.4 °F 103.2 °F 79.7 °F 78% 30.09 in 10.0 mi ESE 4.6 mph - N/A Thunderstorm Clear
8:55 AM 88.5 °F 103.5 °F 78.8 °F 73% 30.10 in 10.0 mi SE 3.5 mph - N/A Thunderstorm Clear
9:15 AM 88.5 °F 102.8 °F 78.6 °F 72% 30.10 in 10.0 mi ESE 4.6 mph - N/A   Clear
9:35 AM 88.3 °F 104.2 °F 79.3 °F 75% 30.10 in 10.0 mi SE 4.6 mph - N/A   Clear
9:55 AM 89.1 °F 105.1 °F 79.3 °F 73% 30.11 in 10.0 mi Calm Calm - N/A   Clear
10:15 AM 88.5 °F 104.1 °F 79.3 °F 74% 30.11 in 10.0 mi Calm Calm - N/A   Clear
10:35 AM 87.3 °F 102.6 °F 79.7 °F 78% 30.11 in 10.0 mi ESE 3.5 mph - N/A   Clear
10:55 AM 86.9 °F 102.1 °F 79.7 °F 79% 30.11 in 10.0 mi East 4.6 mph - N/A   Clear
11:15 AM 87.1 °F 102.6 °F 79.9 °F 79% 30.11 in 10.0 mi East 4.6 mph - N/A Thunderstorm Clear
11:35 AM 89.1 °F 105.1 °F 79.5 °F 73% 30.11 in 10.0 mi South 3.5 mph - N/A   Clear
11:55 AM 90.9 °F 106.4 °F 78.4 °F 67% 30.10 in 10.0 mi SSE 6.9 mph - N/A   Clear
12:15 PM 92.5 °F 108.9 °F 78.8 °F 64% 30.10 in 10.0 mi SSE 6.9 mph - N/A   Clear
12:35 PM 90.7 °F 108.0 °F 79.9 °F 70% 30.10 in 10.0 mi SE 8.1 mph - N/A   Scattered Clouds
12:55 PM 88.9 °F 105.2 °F 79.7 °F 74% 30.10 in 10.0 mi ESE 6.9 mph - N/A   Scattered Clouds
1:15 PM 90.5 °F 106.0 °F 78.4 °F 68% 30.09 in 10.0 mi SE 9.2 mph - N/A   Clear
1:35 PM 92.3 °F 109.1 °F 78.8 °F 65% 30.08 in 10.0 mi South 8.1 mph - N/A   Clear
1:55 PM 91.8 °F 106.8 °F 77.9 °F 64% 30.07 in 10.0 mi SSE 11.5 mph - N/A Thunderstorm Thunderstorm
2:15 PM 91.0 °F 104.8 °F 77.5 °F 64% 30.08 in 10.0 mi SSE 8.1 mph - N/A Thunderstorm Thunderstorm
2:35 PM 90.5 °F 105.3 °F 78.1 °F 67% 30.07 in 10.0 mi SSE 8.1 mph - N/A Thunderstorm Thunderstorm
2:55 PM 90.1 °F 103.7 °F 77.5 °F 66% 30.07 in 10.0 mi South 8.1 mph - N/A   Clear
3:15 PM 90.5 °F 106.0 °F 78.6 °F 68% 30.06 in 10.0 mi South 8.1 mph - N/A Thunderstorm Clear
3:35 PM 88.7 °F 103.4 °F 78.8 °F 72% 30.07 in 10.0 mi Calm Calm - N/A Thunderstorm Thunderstorm
3:55 PM 88.3 °F 102.9 °F 78.6 °F 73% 30.06 in 10.0 mi NNW 6.9 mph - N/A Thunderstorm Scattered Clouds
4:15 PM 83.8 °F 92.5 °F 76.1 °F 77% 30.07 in 10.0 mi North 6.9 mph - N/A   Overcast
4:35 PM 84.4 °F 93.1 °F 75.7 °F 75% 30.06 in 10.0 mi NNW 4.6 mph - N/A Thunderstorm Thunderstorm
4:55 PM 83.8 °F 92.5 °F 76.1 °F 77% 30.05 in 10.0 mi North 3.5 mph - N/A Rain Light Rain
5:15 PM 85.1 °F 94.9 °F 76.5 °F 75% 30.05 in 10.0 mi East 3.5 mph - N/A   Scattered Clouds
5:35 PM 85.5 °F 96.3 °F 77.2 °F 76% 30.04 in 10.0 mi NE 3.5 mph - N/A   Clear
5:55 PM 85.6 °F 96.8 °F 77.4 °F 76% 30.04 in 10.0 mi NW 3.5 mph - N/A   Scattered Clouds
6:15 PM 85.6 °F 97.3 °F 77.7 °F 77% 30.04 in 10.0 mi Calm Calm - N/A   Mostly Cloudy
6:35 PM 85.8 °F 97.8 °F 77.7 °F 77% 30.03 in 10.0 mi Calm Calm - N/A Thunderstorm Mostly Cloudy
6:55 PM 86.0 °F 98.8 °F 78.4 °F 78% 30.03 in 10.0 mi ESE 3.5 mph - N/A   Scattered Clouds
7:15 PM 84.6 °F 96.0 °F 78.3 °F 81% 30.03 in 10.0 mi Calm Calm - N/A   Mostly Cloudy
7:35 PM 83.8 °F 95.1 °F 78.6 °F 84% 30.04 in 10.0 mi Calm Calm - N/A   Scattered Clouds
7:55 PM 83.1 °F 94.0 °F 78.8 °F 87% 30.04 in 10.0 mi Calm Calm - N/A   Clear
8:15 PM 82.4 °F 92.4 °F 78.8 °F 89% 30.04 in 10.0 mi Calm Calm - N/A   Clear
8:35 PM 81.7 °F 90.5 °F 78.6 °F 90% 30.04 in 10.0 mi Calm Calm - N/A   Clear
8:55 PM 81.0 °F 89.0 °F 78.8 °F 93% 30.05 in 10.0 mi Calm Calm - N/A   Clear
9:15 PM 80.2 °F 87.0 °F 78.4 °F 94% 30.05 in 10.0 mi Calm Calm - N/A   Clear
9:35 PM 79.9 °F - 78.4 °F 95% 30.06 in 10.0 mi Calm Calm - N/A   Clear
9:55 PM 80.2 °F 87.1 °F 78.6 °F 95% 30.06 in 10.0 mi Calm Calm - N/A   Clear
10:15 PM 79.5 °F - 78.3 °F 96% 30.06 in 10.0 mi Calm Calm - N/A   Clear
10:35 PM 79.0 °F - 77.9 °F 96% 30.06 in 10.0 mi Calm Calm - N/A   Clear
10:55 PM 78.8 °F - 77.9 °F 97% 30.05 in 10.0 mi Calm Calm - N/A   Clear
11:15 PM 78.3 °F - 77.9 °F 99% 30.05 in 10.0 mi Calm Calm - N/A   Clear
11:55 PM 77.4 °F - 77.0 °F 99% 30.04 in 10.0 mi Calm Calm - N/A   Clear